PRAETORIAN SDA_612

Last updated on Sat Aug 15 2026 00:03:40 GMT+0000 (Coordinated Universal Time)

1 65575U 25203L 26226.34346733 .00000149 00000+0 12146-3 0 9991 2 65575 81.3056 316.5855 0009845 41.0289 319.1607 13.85043843 46765
UTC large
Height (km)
Speed (km/s)
/
Latitude / Longitude
Inclination (degrees)
Orbital Period (minutes)
Azimuth
Elevation
Range (km)
Doppler Factor

Next 0 passes for location: London (51.5072 / 0.1276)

No passes found over London.
PRAETORIAN SDA_612